Flag for Ukraine Weather past 2 weeks in L'viv, Ukraine

Now
82 °F

Passing clouds.


Feels Like: 83 °F
Forecast: 64 / 90 °F
Wind: 6 mph from West

Location: L'Viv Airport

Current Time: Jul 7, 2015 at 4:55:17 PM

Latest Report: Jul 7, 2015 at 4:30 PM


Visibility: N/A

Pressure: 30.04 "Hg

Humidity: 48%

Dew point: 61 °F

Location of L'vivLocation

Historic Weather in L'viv — Graph

°F

L'viv temperature yesterday

Maximum temperature yesterday: 90 °F (at 4:30 PM)
Minimum temperature yesterday: 59 °F (at 4:30 AM)
Average temperature yesterday: 74 °F

Past Weeks' High & Low Weather Summary

 TemperatureHumidityPressure
High90 °F (Jul 6, 4:30 PM)100% (Jun 24, 7:30 AM)30.42 "Hg (Jun 24, 7:30 AM)
Low48 °F (Jun 27, 4:30 AM)29% (Jul 6, 5:30 PM)29.86 "Hg (Jun 23, 6:30 PM)
Average65 °F71%30.11 "Hg
* Reported Jun 22 3:00 PM — Jul 7 3:30 PM, L'viv, Weather by CustomWeather, © 2015

Note: Actual official high and low records may vary slightly from our data, if they occured in-between our weather recording intervals... More about our weather records

Advertising

L'viv weather history for previous 24 hours

 ConditionsComfort  
Time TempWeatherWind HumidityBarometerVisibility
3:30 PM
Tue, Jul 7
81 °FScattered clouds.6 mph48%30.04 "HgN/A
3:00 PM79 °FScattered clouds.3 mph54%30.04 "HgN/A
2:30 PM79 °FPassing clouds.6 mph51%30.07 "HgN/A
2:00 PM79 °FPassing clouds.6 mph48%30.07 "HgN/A
1:30 PM79 °FPassing clouds.3 mph51%30.07 "HgN/A
1:00 PM77 °FPassing clouds.6 mph51%30.07 "HgN/A
12:30 PM75 °FPassing clouds.6 mph54%30.09 "HgN/A
12:00 PM75 °FPassing clouds.3 mph50%30.09 "HgN/A
11:30 AM75 °FSunny.3 mph50%30.09 "Hg10 mi
11:00 AM73 °FSunny.3 mph57%30.09 "Hg10 mi
10:30 AM73 °FPassing clouds.3 mph57%30.09 "HgN/A
10:00 AM72 °FSunny.3 mph61%30.09 "Hg10 mi
9:30 AM72 °FSunny.6 mph65%30.12 "Hg10 mi
9:00 AM70 °FSunny.6 mph64%30.12 "Hg10 mi
8:30 AM72 °FPassing clouds.6 mph65%30.12 "HgN/A
8:00 AM68 °FPartly sunny.6 mph73%30.09 "HgN/A
7:30 AM68 °FPartly sunny.6 mph83%30.09 "HgN/A
7:00 AM66 °FPartly sunny.6 mph88%30.09 "HgN/A
6:30 AM66 °FPartly sunny.8 mph88%30.09 "HgN/A
6:00 AM66 °FPartly cloudy.6 mph88%30.09 "HgN/A
5:30 AM68 °FPartly cloudy.6 mph88%30.07 "HgN/A
5:00 AM68 °FMostly cloudy.3 mph94%30.07 "Hg4 mi
4:30 AM68 °FFog.3 mph94%30.07 "Hg3 mi
4:04 AM68 °FSprinkles. Partly cloudy.8 mph94%30.07 "Hg4 mi
4:01 AM68 °FSprinkles. Partly cloudy.8 mph94%30.07 "Hg2 mi
3:30 AM68 °FClear.1 mph94%30.07 "Hg4 mi
3:00 AM66 °FClear.1 mph94%30.07 "Hg6 mi
2:30 AM66 °FClear.1 mph94%30.07 "Hg4 mi
2:00 AM64 °FFog.3 mph94%30.07 "Hg3 mi
1:30 AM66 °FClear.No wind94%30.04 "Hg4 mi
1:00 AM66 °FFog.1 mph94%30.04 "Hg3 mi
12:30 AM66 °FClear.3 mph94%30.07 "Hg6 mi
12:00 AM68 °FClear.6 mph94%30.07 "Hg10 mi
11:30 PM
Mon, Jul 6
68 °FClear.6 mph88%30.07 "Hg10 mi
11:00 PM68 °FPartly cloudy.6 mph88%30.07 "HgN/A
10:30 PM70 °FBroken clouds.6 mph83%30.04 "HgN/A
10:00 PM68 °FBroken clouds.3 mph88%30.04 "HgN/A
9:30 PM70 °FBroken clouds.3 mph83%30.01 "HgN/A
9:00 PM72 °FBroken clouds.3 mph83%30.01 "HgN/A
8:30 PM73 °FBroken clouds.3 mph74%30.01 "HgN/A
8:00 PM73 °FThundershowers. Broken clouds.6 mph78%30.04 "HgN/A
7:30 PM77 °FThunderstorms. More clouds than sun.22 mph57%30.04 "HgN/A
7:00 PM86 °FThundershowers. Broken clouds.3 mph43%29.98 "HgN/A
6:30 PM88 °FPassing clouds.3 mph35%29.98 "HgN/A
6:00 PM90 °FPassing clouds.6 mph33%29.98 "HgN/A
5:30 PM90 °FPassing clouds.6 mph29%30.01 "HgN/A
5:00 PM90 °FPassing clouds.3 mph31%30.01 "HgN/A
4:30 PM90 °FPassing clouds.6 mph31%30.01 "HgN/A
4:00 PM88 °FPassing clouds.6 mph31%30.01 "HgN/A
Weather by CustomWeather, © 2015

See weather overviewHow to use our weather pages